Weather History for KMQB - March, 2014

Change the Weather History Date:

Monday, March 17, 2014

  Actual Average (KBRL) Record (KBRL)
Temperature  
Mean Temperature 26 °F 42 °F  
Max Temperature 41 °F 52 °F 82 °F (2012)
Min Temperature 13 °F 32 °F 0 °F (1906)
Degree Days  
Heating Degree Days 38 23  
Month to date heating degree days 451  
Since 1 July heating degree days 4829  
Cooling Degree Days 0 0  
Month to date cooling degree days 0  
Year to date cooling degree days 0  
Moisture  
Dew Point 19 °F    
Average Humidity 74    
Maximum Humidity 92    
Minimum Humidity 47    
Precipitation  
Precipitation 0.00 in 0.10 in 1.15 in (1998)
Month to date precipitation 1.48  
Year to date precipitation 4.34  
Sea Level Pressure  
Sea Level Pressure 29.92 in    
Wind  
Wind Speed 6 mph (SE)    
Max Wind Speed 13 mph    
Max Gust Speed 16 mph    
Visibility 10 miles    
Events      
T = Trace of Precipitation, MM = Missing Value Source: NWS Daily Summary

Daily Weather History Graph

Daily Weather History Graph

Search for Another Location

Airport or City:

Trip Planner

Search our weather history database for the weather conditions in past years. The results will help you decide how hot, cold, wet, or windy it might be!

Date:

Astronomy

Mar. 17, 2014 Rise Set
Actual Time 7:10 AM CDT 7:11 PM CDT
Civil Twilight 6:43 AM CDT 7:38 PM CDT
Nautical Twilight 6:11 AM CDT 8:10 PM CDT
Astronomical Twilight 5:39 AM CDT 8:42 PM CDT
Moon 8:29 PM CDT (3/17) 7:26 AM CDT (3/17)
Length of Visible Light 12h 55m
Length of Day
12h 00m
Full, 99% of the Moon is Illuminated
Mar 17
Full
Mar 23
Last Quarter
Mar 30
New
Apr 7
First Quarter
Apr 15
Full

Hourly Weather History & Observations

Time (CDT) Temp. Windchill Dew Point Humidity Pressure Visibility Wind Dir Wind Speed Gust Speed Precip Events Conditions
12:15 AM 18.3 °F 8.2 °F 13.8 °F 83% 30.14 in 10.0 mi NE 8.1 mph - N/A   Clear
12:35 AM 18.5 °F 9.3 °F 14.0 °F 83% 30.13 in 10.0 mi NE 6.9 mph - N/A   Clear
1:15 AM 17.6 °F 8.2 °F 13.8 °F 85% 30.12 in 10.0 mi NNE 6.9 mph - N/A   Clear
1:35 AM 17.4 °F 9.1 °F 13.6 °F 85% 30.11 in 10.0 mi NE 5.8 mph - N/A   Clear
1:55 AM 17.6 °F 10.7 °F 14.0 °F 86% 30.09 in 10.0 mi East 4.6 mph - N/A   Clear
2:15 AM 16.7 °F 8.3 °F 13.6 °F 88% 30.10 in 10.0 mi NE 5.8 mph - N/A   Clear
2:35 AM 16.7 °F 9.6 °F 13.5 °F 87% 30.10 in 10.0 mi NNE 4.6 mph - N/A   Clear
2:55 AM 16.5 °F 9.4 °F 13.3 °F 87% 30.09 in 10.0 mi NNE 4.6 mph - N/A   Clear
3:15 AM 15.8 °F - 12.9 °F 88% 30.08 in 10.0 mi Calm Calm - N/A   Clear
3:35 AM 15.8 °F - 13.1 °F 89% 30.06 in 10.0 mi Calm Calm - N/A   Clear
3:55 AM 15.1 °F - 12.6 °F 90% 30.04 in 10.0 mi Calm Calm - N/A   Clear
4:15 AM 15.4 °F - 13.1 °F 90% 30.03 in 10.0 mi Calm Calm - N/A   Clear
4:35 AM 15.4 °F - 12.9 °F 90% 30.03 in 10.0 mi Calm Calm - N/A   Clear
4:55 AM 14.5 °F 8.8 °F 12.2 °F 90% 30.03 in 10.0 mi North 3.5 mph - N/A   Clear
5:15 AM 14.5 °F 8.8 °F 12.2 °F 90% 30.02 in 10.0 mi NNE 3.5 mph - N/A   Clear
5:35 AM 14.5 °F - 12.2 °F 90% 30.02 in 10.0 mi Calm Calm - N/A   Clear
5:55 AM 14.7 °F - 12.0 °F 89% 30.02 in 10.0 mi Calm Calm - N/A   Clear
6:15 AM 13.8 °F - 11.8 °F 92% 30.01 in 10.0 mi Calm Calm - N/A   Clear
6:35 AM 13.8 °F - 11.8 °F 92% 30.02 in 10.0 mi Calm Calm - N/A   Clear
6:55 AM 14.0 °F 8.2 °F 11.8 °F 91% 30.03 in 10.0 mi North 3.5 mph - N/A   Clear
7:15 AM 13.8 °F - 11.7 °F 91% 30.02 in 10.0 mi Calm Calm - N/A   Clear
7:35 AM 15.1 °F 9.4 °F 12.9 °F 91% 30.01 in 10.0 mi ENE 3.5 mph - N/A   Clear
7:55 AM 16.3 °F 10.8 °F 13.6 °F 89% 30.00 in 10.0 mi East 3.5 mph - N/A   Clear
8:15 AM 16.7 °F 9.6 °F 14.2 °F 90% 30.00 in 10.0 mi East 4.6 mph - N/A   Clear
8:35 AM 17.4 °F - 14.9 °F 90% 29.99 in 10.0 mi Calm Calm - N/A   Clear
8:55 AM 19.8 °F 13.2 °F 16.3 °F 87% 29.99 in 10.0 mi ESE 4.6 mph - N/A   Clear
9:15 AM 21.4 °F 15.1 °F 17.4 °F 85% 29.98 in 10.0 mi SE 4.6 mph - N/A   Clear
9:35 AM 23.4 °F 13.5 °F 16.9 °F 76% 29.98 in 10.0 mi SE 9.2 mph - N/A   Clear
9:55 AM 23.9 °F 15.8 °F 16.7 °F 74% 29.98 in 10.0 mi SE 6.9 mph - N/A   Clear
10:15 AM 24.8 °F 17.9 °F 17.2 °F 73% 29.98 in 10.0 mi SSE 5.8 mph - N/A   Clear
10:35 AM 25.5 °F 17.8 °F 17.4 °F 71% 29.97 in 10.0 mi SSE 6.9 mph - N/A   Clear
10:55 AM 25.9 °F 19.2 °F 16.3 °F 67% 29.97 in 10.0 mi SSE 5.8 mph - N/A   Clear
11:15 AM 27.1 °F 21.8 °F 16.9 °F 65% 29.97 in 10.0 mi South 4.6 mph - N/A   Clear
11:35 AM 27.7 °F 22.4 °F 17.8 °F 66% 29.96 in 10.0 mi SSE 4.6 mph - N/A   Clear
11:55 AM 28.8 °F 23.7 °F 18.5 °F 66% 29.95 in 10.0 mi SSE 4.6 mph - N/A   Clear
12:15 PM 29.5 °F 23.4 °F 18.5 °F 64% 29.93 in 10.0 mi South 5.8 mph - N/A   Clear
12:35 PM 31.1 °F 26.4 °F 19.9 °F 63% 29.92 in 10.0 mi SSE 4.6 mph - N/A   Clear
12:55 PM 31.6 °F 25.1 °F 19.0 °F 60% 29.90 in 10.0 mi South 6.9 mph - N/A   Clear
1:15 PM 32.4 °F 26.0 °F 21.9 °F 65% 29.88 in 10.0 mi South 6.9 mph - N/A   Clear
1:35 PM 33.3 °F 28.9 °F 21.0 °F 61% 29.89 in 10.0 mi South 4.6 mph - N/A   Clear
1:55 PM 34.7 °F 29.6 °F 20.8 °F 57% 29.87 in 10.0 mi SSE 5.8 mph - N/A   Clear
2:15 PM 35.6 °F 27.5 °F 22.3 °F 58% 29.84 in 10.0 mi SSE 11.5 mph - N/A   Clear
2:35 PM 36.3 °F 29.5 °F 23.9 °F 61% 29.83 in 10.0 mi SSE 9.2 mph - N/A   Clear
2:55 PM 38.1 °F 30.7 °F 25.3 °F 60% 29.82 in 10.0 mi SSE 11.5 mph 16.1 mph N/A   Clear
3:15 PM 38.7 °F 33.6 °F 23.9 °F 55% 29.82 in 10.0 mi SSE 6.9 mph - N/A   Clear
3:35 PM 40.1 °F 33.2 °F 25.2 °F 55% 29.80 in 10.0 mi South 11.5 mph - N/A   Clear
3:55 PM 40.5 °F 33.6 °F 25.5 °F 55% 29.79 in 10.0 mi SSE 11.5 mph 16.1 mph N/A   Clear
4:15 PM 40.6 °F 33.8 °F 23.2 °F 50% 29.78 in 10.0 mi SSE 11.5 mph - N/A   Clear
4:35 PM 40.6 °F 33.8 °F 21.6 °F 47% 29.78 in 10.0 mi South 11.5 mph - N/A   Clear
4:55 PM 40.3 °F 33.0 °F 21.9 °F 48% 29.77 in 10.0 mi SSE 12.7 mph - N/A   Clear
5:15 PM 39.6 °F 33.0 °F 22.5 °F 50% 29.77 in 10.0 mi South 10.4 mph - N/A   Clear
5:35 PM 39.6 °F 33.5 °F 23.5 °F 53% 29.77 in 10.0 mi South 9.2 mph - N/A   Clear
5:55 PM 39.2 °F 33.0 °F 23.4 °F 53% 29.77 in 10.0 mi South 9.2 mph - N/A   Clear
6:15 PM 38.5 °F 32.1 °F 25.2 °F 59% 29.77 in 10.0 mi SSE 9.2 mph - N/A   Clear
6:35 PM 37.4 °F 31.4 °F 26.2 °F 64% 29.77 in 10.0 mi SE 8.1 mph - N/A   Clear
6:55 PM 36.7 °F 29.9 °F 26.2 °F 66% 29.76 in 10.0 mi SSE 9.2 mph - N/A   Clear
7:15 PM 35.6 °F 27.5 °F 25.7 °F 67% 29.77 in 10.0 mi SE 11.5 mph - N/A   Clear
7:35 PM 35.1 °F 26.9 °F 26.1 °F 70% 29.77 in 10.0 mi SSE 11.5 mph - N/A   Clear
7:55 PM 35.6 °F 28.0 °F 25.5 °F 67% 29.77 in 10.0 mi SSE 10.4 mph - N/A   Clear
8:15 PM 34.9 °F 26.6 °F 26.2 °F 71% 29.77 in 10.0 mi SSE 11.5 mph - N/A   Clear
8:35 PM 34.7 °F 26.9 °F 26.6 °F 72% 29.77 in 10.0 mi SSE 10.4 mph - N/A   Clear
8:55 PM 34.7 °F 25.9 °F 26.6 °F 72% 29.77 in 10.0 mi SSE 12.7 mph - N/A   Clear
9:15 PM 34.7 °F 26.9 °F 26.8 °F 73% 29.77 in 10.0 mi SSE 10.4 mph - N/A   Clear
9:35 PM 34.0 °F 26.0 °F 27.1 °F 76% 29.77 in 10.0 mi SSE 10.4 mph - N/A   Clear
9:55 PM 34.0 °F 26.6 °F 27.3 °F 77% 29.77 in 10.0 mi SSE 9.2 mph - N/A   Clear
10:35 PM 32.9 °F 25.3 °F 27.3 °F 80% 29.78 in 10.0 mi SE 9.2 mph - N/A   Clear
10:55 PM 32.2 °F 24.4 °F 27.3 °F 82% 29.78 in 10.0 mi SSE 9.2 mph - N/A   Clear
11:15 PM 32.0 °F 23.6 °F 27.1 °F 82% 29.78 in 10.0 mi SE 10.4 mph - N/A   Clear
11:35 PM 32.0 °F 24.2 °F 27.1 °F 82% 29.78 in 10.0 mi SSE 9.2 mph - N/A   Clear
11:55 PM 32.2 °F 25.0 °F 26.6 °F 80% 29.78 in 10.0 mi SE 8.1 mph - N/A   Clear